Hoehne, CO

9:38 AM MST on January 20, 2017 (GMT -0700)
Trinidad

Weather History for KTAD - May, 2013

Change the Weather History Date:

Friday, May 17, 2013

  Actual Average Record
Temperature  
Mean Temperature 70 °F 60 °F  
Max Temperature 90 °F 75 °F 90 °F (2013)
Min Temperature 49 °F 44 °F 32 °F (1968)
Degree Days  
Heating Degree Days 0 6  
Month to date heating degree days 194 141  
Since 1 July heating degree days 5402 5431  
Cooling Degree Days 5 1  
Month to date cooling degree days 19 6  
Year to date cooling degree days 23 8  
Growing Degree Days 20 (Base 50)    
Moisture  
Dew Point 13 °F    
Average Humidity 21    
Maximum Humidity 39    
Minimum Humidity 3    
Precipitation  
Precipitation 0.00 in 0.05 in 1.46 in (2001)
Month to date precipitation 0.48  
Year to date precipitation 1.91  
Sea Level Pressure  
Sea Level Pressure 29.70 in    
Wind  
Wind Speed 12 mph (WSW)    
Max Wind Speed 25 mph    
Max Gust Speed 33 mph    
Visibility 10 miles    
Events      
T = Trace of Precipitation, MM = Missing Value Source: NWS Daily Summary

Daily Weather History Graph

Daily Weather History Graph

Search for Another Location

Airport or City:

Trip Planner

Search our weather history database for the weather conditions in past years. The results will help you decide how hot, cold, wet, or windy it might be!

Date:

Astronomy

May. 17, 2013 Rise Set
Actual Time 5:46 AM MDT 8:01 PM MDT
Civil Twilight 5:17 AM MDT 8:30 PM MDT
Nautical Twilight 4:41 AM MDT 9:06 PM MDT
Astronomical Twilight 4:02 AM MDT 9:45 PM MDT
Moon 12:17 PM MDT (5/17) 12:58 AM MDT (5/17)
Length of Visible Light 15h 12m
Length of Day
14h 14m
Waxing Crescent, 46% of the Moon is Illuminated
May 17
Waxing Crescent
May 17
First Quarter
May 24
Full
May 31
Last Quarter
Jun 8
New

Hourly Weather History & Observations

Time (MDT) Temp. Dew Point Humidity Pressure Visibility Wind Dir Wind Speed Gust Speed Precip Events Conditions
12:54 AM 59.0 °F 21.9 °F 24% 29.67 in 10.0 mi WSW 10.4 mph - N/A   Clear
1:54 AM 60.1 °F 21.0 °F 22% 29.67 in 10.0 mi SW 15.0 mph - N/A   Clear
2:54 AM 55.9 °F 21.9 °F 27% 29.68 in 10.0 mi WSW 10.4 mph - N/A   Clear
3:54 AM 51.1 °F 24.1 °F 35% 29.71 in 10.0 mi West 10.4 mph - N/A   Clear
4:54 AM 52.0 °F 23.0 °F 32% 29.72 in 10.0 mi WNW 11.5 mph - N/A   Clear
6:54 AM 54.0 °F 25.0 °F 33% 29.76 in 10.0 mi West 9.2 mph - N/A   Clear
7:54 AM 64.9 °F 23.0 °F 20% 29.75 in 10.0 mi WSW 16.1 mph - N/A   Clear
8:54 AM 75.0 °F 19.9 °F 13% 29.74 in 10.0 mi WSW 12.7 mph - N/A   Clear
9:54 AM 80.1 °F 14.0 °F 8% 29.72 in 10.0 mi West 10.4 mph 17.3 mph N/A   Clear
10:54 AM 82.0 °F 9.0 °F 6% 29.72 in 10.0 mi SSW 8.1 mph - N/A   Clear
11:54 AM 84.0 °F 9.0 °F 6% 29.69 in 10.0 mi SSW 11.5 mph 19.6 mph N/A   Clear
12:32 PM 84.2 °F 6.8 °F 5% 29.94 in 10.0 mi West 9.2 mph - N/A   Clear
1:54 PM 88.0 °F 3.0 °F 4% 29.64 in 10.0 mi WSW 12.7 mph 20.7 mph N/A   Clear
2:54 PM 87.1 °F 1.9 °F 4% 29.63 in 10.0 mi South 6.9 mph 16.1 mph N/A   Clear
3:54 PM 89.1 °F -0.9 °F 4% 29.64 in 10.0 mi SW 18.4 mph 26.5 mph N/A   Clear
4:54 PM 84.0 °F 5.0 °F 5% 29.65 in 10.0 mi West 20.7 mph 25.3 mph N/A   Clear
5:54 PM 82.9 °F 8.1 °F 6% 29.67 in 10.0 mi West 16.1 mph 26.5 mph N/A   Clear
6:54 PM 81.0 °F 10.0 °F 7% 29.66 in 10.0 mi WSW 15.0 mph - N/A   Clear
7:54 PM 73.0 °F 10.0 °F 9% 29.66 in 10.0 mi SW 5.8 mph - N/A   Clear
8:54 PM 66.9 °F 10.0 °F 11% 29.66 in 10.0 mi WSW 8.1 mph - N/A   Clear
9:54 PM 61.0 °F 14.0 °F 16% 29.68 in 10.0 mi WNW 9.2 mph - N/A   Clear
10:54 PM 59.0 °F 15.1 °F 18% 29.68 in 10.0 mi WSW 12.7 mph - N/A   Clear
11:54 PM 63.0 °F 12.0 °F 14% 29.66 in 10.0 mi WSW 15.0 mph - N/A   Clear